Curacao Island, Netherlands

10:28 PM AST on December 04, 2016 (GMT -0400)
Flamingo

Weather History for TNCB - June, 2012

Change the Weather History Date:

Friday, June 15, 2012

  Actual Average Record
Temperature  
Mean Temperature 84 °F -  
Max Temperature 87 °F 87 °F 91 °F (2005)
Min Temperature 80 °F 81 °F 80 °F (1999)
Cooling Degree Days 18    
Growing Degree Days 34 (Base 50)    
Moisture  
Dew Point 76 °F    
Average Humidity 76    
Maximum Humidity 84    
Minimum Humidity 60    
Precipitation  
Precipitation 0.00 in - - ()
Sea Level Pressure  
Sea Level Pressure 29.92 in    
Wind  
Wind Speed 8 mph ()    
Max Wind Speed 21 mph    
Max Gust Speed -    
Visibility 8.7 miles    
Events      
Averages and records for this station are not official NWS values.
T = Trace of Precipitation, MM = Missing Value Source: Averaged Metar Reports

Daily Weather History Graph

Daily Weather History Graph

Search for Another Location

Airport or City:

Trip Planner

Search our weather history database for the weather conditions in past years. The results will help you decide how hot, cold, wet, or windy it might be!

Date:

Astronomy

Jun. 15, 2012 Rise Set
Actual Time 6:08 AM AST 6:58 PM AST
Civil Twilight 5:45 AM AST 7:22 PM AST
Nautical Twilight 5:17 AM AST 7:49 PM AST
Astronomical Twilight 4:50 AM AST 8:17 PM AST
Moon 2:59 AM AST (6/15) 3:52 PM AST (6/15)
Length of Visible Light 13h 36m
Length of Day
12h 50m
Waning Crescent, 14% of the Moon is Illuminated
Jun 15
Waning Crescent
Jun 19
New
Jun 26
First Quarter
Jul 3
Full
Jul 10
Last Quarter

Hourly Weather History & Observations

Time (AST) Temp. Heat Index Dew Point Humidity Pressure Visibility Wind Dir Wind Speed Gust Speed Precip Events Conditions
12:00 AM 80.6 °F 86.2 °F 75.2 °F 84% 29.95 in - North - - N/A   Unknown
1:00 AM 80.6 °F 86.2 °F 75.2 °F 84% 29.95 in - North - - N/A   Unknown
2:00 AM 80.6 °F 86.2 °F 75.2 °F 84% 29.92 in - Calm Calm - N/A   Unknown
3:00 AM 80.6 °F 86.2 °F 75.2 °F 84% 29.92 in - Calm Calm - N/A   Unknown
4:00 AM 80.6 °F 86.2 °F 75.2 °F 84% 29.89 in - Calm Calm - N/A   Unknown
8:00 AM 83 °F - 76 °F 75%  in 16 mi Calm Calm - -   Clear
8:00 AM 82.4 °F 90.9 °F 77.0 °F 84% 29.95 in - North - - N/A   Unknown
9:00 AM 86.0 °F 96.9 °F 77.0 °F 74% 29.95 in 6.2 mi East 16.1 mph - N/A   Scattered Clouds
10:00 AM 86.0 °F 96.9 °F 77.0 °F 74% 29.95 in 6.2 mi ESE 18.4 mph - N/A   Scattered Clouds
11:00 AM 87 °F - 77 °F 65% 29.97 in 19 mi SE 16.1 mph - -   Partly Cloudy
11:00 AM 87.8 °F 99.7 °F 77.0 °F 70% 29.95 in 6.2 mi SE 16.1 mph - N/A   Scattered Clouds
12:00 PM 84.2 °F 92.3 °F 75.2 °F 74% 29.95 in 6.2 mi SSE 12.7 mph - N/A   Scattered Clouds
1:00 PM 86.0 °F 95.1 °F 75.2 °F 70% 29.92 in 6.2 mi SSE 13.8 mph - N/A   Scattered Clouds
2:00 PM 87 °F - 75 °F 60% 29.91 in 19 mi East 16.1 mph - -   Partly Cloudy
2:00 PM 87.8 °F 97.6 °F 75.2 °F 66% 29.89 in 6.2 mi East 16.1 mph - N/A   Scattered Clouds
3:00 PM 86.0 °F 95.1 °F 75.2 °F 70% 29.86 in 6.2 mi East 19.6 mph - N/A   Scattered Clouds
4:00 PM 87.8 °F 99.7 °F 77.0 °F 70% 29.86 in 6.2 mi East 19.6 mph - N/A   Scattered Clouds
6:00 PM 84.2 °F 92.3 °F 75.2 °F 74% 29.86 in 6.2 mi East 20.7 mph - N/A   Scattered Clouds
7:00 PM 82.4 °F 89.5 °F 75.2 °F 79% 29.86 in 6.2 mi East 16.1 mph - N/A   Partly Cloudy
8:00 PM 82 °F - 76 °F 76% 29.91 in 16 mi East 16.1 mph - -   Scattered Clouds
8:00 PM 82.4 °F 89.5 °F 75.2 °F 79% 29.89 in 6.2 mi East 16.1 mph - N/A   Partly Cloudy
9:00 PM 82.4 °F 89.5 °F 75.2 °F 79% 29.92 in 6.2 mi North - - N/A   Partly Cloudy
10:00 PM 82.4 °F 90.9 °F 77.0 °F 84% 29.92 in 6.2 mi North - - N/A   Partly Cloudy
11:00 PM 81 °F - 76 °F 80%  in 6 mi Calm Calm - -   Clear
11:00 PM 80.6 °F 86.2 °F 75.2 °F 84% 29.92 in - North - - N/A   Unknown